Weather History for 08181 - August, 2013

Change the Weather History Date:

Sunday, August 4, 2013

  Actual Average Record
Temperature  
Mean Temperature 79 °F -  
Max Temperature 86 °F 79 °F - ()
Min Temperature 72 °F 67 °F - ()
Cooling Degree Days 14    
Growing Degree Days 29 (Base 50)    
Moisture  
Dew Point 70 °F    
Average Humidity 73    
Maximum Humidity 89    
Minimum Humidity 50    
Precipitation  
Precipitation 0.00 in 0.09 in - ()
Sea Level Pressure  
Sea Level Pressure 30.09 in    
Wind  
Wind Speed 6 mph ()    
Max Wind Speed 9 mph    
Max Gust Speed -    
Visibility 9.5 miles    
Events      
T = Trace of Precipitation, MM = Missing Value Source: Averaged Metar Reports

Daily Weather History Graph

Daily Weather History Graph

Search for Another Location

Airport or City:

Trip Planner

Search our weather history database for the weather conditions in past years. The results will help you decide how hot, cold, wet, or windy it might be!

Date:

Astronomy

Aug. 04, 2013 Rise Set
Actual Time 6:49 AM CEST 9:05 PM CEST
Civil Twilight 6:19 AM CEST 9:35 PM CEST
Nautical Twilight 5:41 AM CEST 10:13 PM CEST
Astronomical Twilight 4:59 AM CEST 10:55 PM CEST
Moon 4:37 AM CEST (8/4) 7:18 PM CEST (8/4)
Length of Visible Light 15h 16m
Length of Day
14h 15m
Waning Crescent, 6% of the Moon is Illuminated
Aug 4
Waning Crescent
Aug 6
New
Aug 14
First Quarter
Aug 21
Full
Aug 28
Last Quarter

Hourly Weather History & Observations

Time (CEST) Temp. Heat Index Dew Point Humidity Pressure Visibility Wind Dir Wind Speed Gust Speed Precip Events Conditions
12:00 AM 77.0 °F - 71.6 °F 83% 30.09 in 6.2 mi NNW 2.3 mph - N/A   Partly Cloudy
12:30 AM 77.0 °F - 73.4 °F 89% 30.09 in 6.2 mi Variable 1.2 mph - N/A   Partly Cloudy
1:00 AM 77.0 °F - 71.6 °F 83% 30.09 in 6.2 mi Calm Calm - N/A   Partly Cloudy
1:30 AM 77.0 °F - 69.8 °F 78% 30.09 in - NNW 4.6 mph - N/A   Clear
2:00 AM 75 °F - 70 °F 81% 30.10 in 11 mi North 8.1 mph - -   Clear
2:00 AM 75.2 °F - 69.8 °F 83% 30.09 in - NNW 6.9 mph - N/A   Clear
2:30 AM 75.2 °F - 68.0 °F 78% 30.09 in - NNW 5.8 mph - N/A   Clear
3:00 AM 75.2 °F - 68.0 °F 78% 30.06 in 6.2 mi NNW 8.1 mph - N/A   Partly Cloudy
3:30 AM 73.4 °F - 68.0 °F 83% 30.06 in - NNW 6.9 mph - N/A   Clear
4:00 AM 73.4 °F - 68.0 °F 83% 30.06 in - NNW 6.9 mph - N/A   Clear
4:30 AM 73.4 °F - 66.2 °F 78% 30.06 in - NNW 8.1 mph - N/A   Clear
5:00 AM 73.4 °F - 68.0 °F 83% 30.06 in - NNW 8.1 mph - N/A   Clear
5:30 AM 73.4 °F - 66.2 °F 78% 30.06 in - NNW 8.1 mph - N/A   Clear
6:00 AM 73.4 °F - 66.2 °F 78% 30.06 in - NNW 8.1 mph - N/A   Clear
6:30 AM 73.4 °F - 66.2 °F 78% 30.09 in - NNW 8.1 mph - N/A   Clear
7:00 AM 73.4 °F - 64.4 °F 73% 30.09 in - NNW 5.8 mph - N/A   Clear
7:30 AM 73.4 °F - 64.4 °F 73% 30.09 in - NNW 6.9 mph - N/A   Clear
8:00 AM 73 °F - 66 °F 73% 30.11 in 16 mi North 8.1 mph - -   Clear
8:00 AM 73.4 °F - 64.4 °F 73% 30.09 in - NNW 6.9 mph - N/A   Clear
8:30 AM 75.2 °F - 64.4 °F 69% 30.09 in 6.2 mi NNW 9.2 mph - N/A   Partly Cloudy
9:00 AM 77.0 °F - 64.4 °F 65% 30.12 in 6.2 mi NNW 6.9 mph - N/A   Partly Cloudy
9:30 AM 78.8 °F - 64.4 °F 61% 30.12 in - NNW 4.6 mph - N/A   Clear
10:00 AM 80.6 °F 82.7 °F 66.2 °F 61% 30.12 in - ENE 9.2 mph - N/A   Clear
10:30 AM 82.4 °F 84.6 °F 66.2 °F 58% 30.12 in - ENE 9.2 mph - N/A   Clear
11:00 AM 84.2 °F 87.3 °F 68.0 °F 58% 30.12 in - ENE 8.1 mph - N/A   Clear
11:30 AM 86.0 °F 88.2 °F 66.2 °F 51% 30.12 in - East 6.9 mph - N/A   Clear
12:00 PM 84.2 °F 86.6 °F 66.2 °F 55% 30.12 in - ENE 6.9 mph - N/A   Clear
12:30 PM 86.0 °F 88.2 °F 66.2 °F 51% 30.12 in - East 6.9 mph - N/A   Clear
1:00 PM 86.0 °F 88.2 °F 66.2 °F 51% 30.12 in 6.2 mi East 8.1 mph - N/A   Partly Cloudy
1:30 PM 86.0 °F 89.4 °F 68.0 °F 55% 30.12 in 6.2 mi East 8.1 mph - N/A   Partly Cloudy
2:00 PM 85 °F - 69 °F 50% 30.14 in 19 mi ESE 9.2 mph - -  
2:00 PM 84.2 °F 87.3 °F 68.0 °F 58% 30.12 in - ESE 9.2 mph - N/A   Clear
2:30 PM 84.2 °F 88.4 °F 69.8 °F 62% 30.12 in - ESE 8.1 mph - N/A   Clear
3:00 PM 84.2 °F 88.4 °F 69.8 °F 62% 30.12 in - ESE 8.1 mph - N/A   Clear
3:30 PM 84.2 °F 89.6 °F 71.6 °F 66% 30.12 in - ESE 8.1 mph - N/A   Clear
4:00 PM 84.2 °F 89.6 °F 71.6 °F 66% 30.09 in - East 8.1 mph - N/A   Clear
4:30 PM 82.4 °F 88.2 °F 73.4 °F 74% 30.09 in - ESE 8.1 mph - N/A   Clear
5:00 PM 82.4 °F 88.2 °F 73.4 °F 74% 30.09 in - ESE 8.1 mph - N/A   Clear
5:30 PM 84.2 °F 90.9 °F 73.4 °F 70% 30.09 in - SE 6.9 mph - N/A   Clear
6:00 PM 84.2 °F 90.9 °F 73.4 °F 70% 30.06 in - SE 5.8 mph - N/A   Clear
6:30 PM 82.4 °F 88.2 °F 73.4 °F 74% 30.06 in - SE 6.9 mph - N/A   Clear
7:00 PM 82.4 °F 88.2 °F 73.4 °F 74% 30.06 in - SSE 5.8 mph - N/A   Clear
7:30 PM 82.4 °F 88.2 °F 73.4 °F 74% 30.06 in - South 5.8 mph - N/A   Clear
8:00 PM 82 °F - 76 °F 78% 30.07 in 19 mi SSW 6.9 mph - -  
8:00 PM 82.4 °F 89.5 °F 75.2 °F 79% 30.06 in - South 5.8 mph - N/A   Clear
8:30 PM 80.6 °F 86.2 °F 75.2 °F 84% 30.06 in - SSW 6.9 mph - N/A   Clear
9:00 PM 80.6 °F 86.2 °F 75.2 °F 84% 30.06 in - SSW 6.9 mph - N/A   Clear
9:30 PM 78.8 °F - 75.2 °F 89% 30.06 in - SSW 6.9 mph - N/A   Clear
10:00 PM 78.8 °F - 75.2 °F 89% 30.06 in - SSW 5.8 mph - N/A   Clear
10:30 PM 78.8 °F - 75.2 °F 89% 30.06 in - SSW 5.8 mph - N/A   Clear
11:00 PM 78.8 °F - 75.2 °F 89% 30.06 in - SW 6.9 mph - N/A   Clear
11:30 PM 78.8 °F - 75.2 °F 89% 30.06 in - SW 8.1 mph - N/A   Clear